Home > Weather > Jan Mayen > Past weeks

Flag for Norway Weather for the Past 2 Weeks in Jan Mayen, Jan Mayen, Norway

Now
38 °F

Chilly.


Feels Like: 32 °F
Forecast: 36 / 39 °F
Wind: 8 mph from East

Location: Jan Mayen

Current Time: May 3, 2016 at 7:56:03 AM

Latest Report: May 3, 2016 at 6:00 AM


Visibility: N/A

Pressure: 29.50 "Hg

Humidity: 91%

Dew Point: 36 °F

Location of Jan MayenLocation

Historic Weather in Jan Mayen — Graph

°F

Jan Mayen Temperature Yesterday

Maximum temperature yesterday: 40 °F (at 9:00 PM)
Minimum temperature yesterday: 38 °F (at 11:00 PM)
Average temperature yesterday: 39 °F

High & Low Weather Summary for the Past Weeks

 TemperatureHumidityPressure
High44 °F (Apr 29, 7:00 PM)97% (Apr 28, 9:00 AM)30.37 "Hg (Apr 28, 9:00 AM)
Low20 °F (Apr 21, 9:00 PM)55% (Apr 29, 8:00 PM)29.35 "Hg (May 2, 11:00 PM)
Average31 °F81%30.03 "Hg
* Reported Apr 18 9:00 AM — May 3 6:00 AM, Jan Mayen, Weather by CustomWeather, © 2016

Note: Actual official high and low records may vary slightly from our data, if they occured in-between our weather recording intervals... More about our weather records

Advertising

Jan Mayen Weather History for the Previous 24 Hours

Scroll right to see more
 ConditionsComfort  
Time TempWeatherWind HumidityBarometerVisibility
6:00 AM
Tue, May 3
38 °FChilly.8 mph91%29.50 "HgN/A
5:00 AM38 °FChilly.9 mph92%29.47 "HgN/A
3:00 AM38 °FChilly.8 mph94%29.41 "HgN/A
2:00 AM37 °FFog.3 mph94%29.38 "Hg3 mi
1:00 AM38 °FChilly.10 mph94%29.35 "HgN/A
12:00 AM38 °FChilly.15 mph94%29.35 "HgN/A
11:00 PM
Mon, May 2
38 °FChilly.15 mph93%29.35 "HgN/A
10:00 PM38 °FChilly.14 mph93%29.38 "HgN/A
9:00 PM40 °FQuite cool.15 mph92%29.38 "HgN/A
8:00 PM40 °FRain. Low clouds.14 mph92%29.41 "Hg4 mi
7:00 PM40 °FChilly.12 mph87%29.44 "HgN/A
6:00 PM40 °FChilly.9 mph92%29.47 "HgN/A
5:00 PM40 °FLow clouds.9 mph90%29.50 "Hg7 mi
4:00 PM39 °FChilly.8 mph86%29.56 "HgN/A
3:00 PM40 °FChilly.9 mph85%29.59 "HgN/A
2:00 PM40 °FFog.8 mph89%29.62 "Hg6 mi
1:00 PM39 °FChilly.7 mph91%29.64 "HgN/A
12:00 PM39 °FChilly.8 mph92%29.65 "HgN/A
11:00 AM38 °FFog.5 mph92%29.65 "Hg5 mi
Weather by CustomWeather, © 2016

See weather overviewHow to use our weather pages